Weather History for KMQB - July, 2013

Change the Weather History Date:

Saturday, July 6, 2013

  Actual Average (KBRL) Record (KBRL)
Temperature  
Mean Temperature 75 °F 77 °F  
Max Temperature 88 °F 87 °F 105 °F (1936)
Min Temperature 62 °F 67 °F 49 °F (1972)
Degree Days  
Heating Degree Days 0 0  
Month to date heating degree days 0  
Since 1 June heating degree days 13  
Since 1 July heating degree days 0  
Cooling Degree Days 10 12  
Month to date cooling degree days 72  
Year to date cooling degree days 435  
Since 1 June cooling degree days 332  
Growing Degree Days 25 (Base 50)    
Moisture  
Dew Point 65 °F    
Average Humidity 70    
Maximum Humidity 95    
Minimum Humidity 40    
Precipitation  
Precipitation 0.00 in 0.15 in 0.15 in (2004)
Month to date precipitation 0.87  
Year to date precipitation 19.60  
Sea Level Pressure  
Sea Level Pressure 30.03 in    
Wind  
Wind Speed 5 mph (SSE)    
Max Wind Speed 12 mph    
Max Gust Speed 17 mph    
Visibility 9 miles    
Events      
T = Trace of Precipitation, MM = Missing Value Source: NWS Daily Summary

Daily Weather History Graph

Daily Weather History Graph

Search for Another Location

Airport or City:

Trip Planner

Search our weather history database for the weather conditions in past years. The results will help you decide how hot, cold, wet, or windy it might be!

Date:

Astronomy

Jul. 06, 2013 Rise Set
Actual Time 5:38 AM CDT 8:35 PM CDT
Civil Twilight 5:05 AM CDT 9:08 PM CDT
Nautical Twilight 4:24 AM CDT 9:50 PM CDT
Astronomical Twilight 3:35 AM CDT 10:38 PM CDT
Moon 4:24 AM CDT (7/6) 7:17 PM CDT (7/6)
Length of Visible Light 16h 02m
Length of Day
14h 57m
Waning Crescent, 2% of the Moon is Illuminated
Jul 6
Waning Crescent
Jul 8
New
Jul 15
First Quarter
Jul 22
Full
Jul 29
Last Quarter

Hourly Weather History & Observations

Time (CDT) Temp. Heat Index Dew Point Humidity Pressure Visibility Wind Dir Wind Speed Gust Speed Precip Events Conditions
12:15 AM 69.1 °F - 64.0 °F 84% 30.05 in 10.0 mi SSE 4.6 mph - N/A   Clear
12:35 AM 68.9 °F - 63.9 °F 84% 30.05 in 10.0 mi South 3.5 mph - N/A   Clear
12:55 AM 68.2 °F - 63.7 °F 85% 30.05 in 10.0 mi South 4.6 mph - N/A   Clear
1:15 AM 68.0 °F - 63.7 °F 86% 30.05 in 10.0 mi South 4.6 mph - N/A   Clear
1:35 AM 67.6 °F - 63.5 °F 87% 30.05 in 10.0 mi South 4.6 mph - N/A   Clear
1:55 AM 67.1 °F - 63.5 °F 88% 30.05 in 10.0 mi South 3.5 mph - N/A   Clear
2:15 AM 67.1 °F - 63.0 °F 87% 30.05 in 10.0 mi SSW 3.5 mph - N/A   Clear
2:35 AM 66.7 °F - 62.8 °F 87% 30.05 in 10.0 mi SSE 5.8 mph - N/A   Clear
2:55 AM 66.2 °F - 63.1 °F 90% 30.05 in 10.0 mi SE 3.5 mph - N/A   Clear
3:15 AM 64.8 °F - 62.2 °F 92% 30.06 in 7.0 mi Calm Calm - N/A   Clear
3:35 AM 64.8 °F - 63.0 °F 94% 30.06 in 7.0 mi ESE 5.8 mph - N/A   Clear
3:55 AM 64.9 °F - 62.6 °F 92% 30.05 in 7.0 mi SE 4.6 mph - N/A   Clear
4:15 AM 64.8 °F - 62.6 °F 93% 30.05 in 7.0 mi SE 4.6 mph - N/A   Clear
4:35 AM 64.6 °F - 63.0 °F 94% 30.05 in 5.0 mi Calm Calm - N/A   Clear
4:55 AM 64.0 °F - 62.2 °F 94% 30.06 in 7.0 mi Calm Calm - N/A   Clear
5:15 AM 64.4 °F - 62.2 °F 93% 30.05 in 7.0 mi Calm Calm - N/A   Clear
5:35 AM 63.5 °F - 61.5 °F 93% 30.06 in 5.0 mi ESE 3.5 mph - N/A   Clear
5:55 AM 62.6 °F - 61.0 °F 94% 30.07 in 3.0 mi ESE 3.5 mph - N/A   Clear
6:15 AM 63.5 °F - 61.9 °F 94% 30.06 in 3.0 mi ESE 3.5 mph - N/A   Clear
6:35 AM 64.9 °F - 63.5 °F 95% 30.06 in 4.0 mi Calm Calm - N/A   Clear
6:55 AM 65.5 °F - 63.9 °F 94% 30.06 in 3.0 mi Calm Calm - N/A   Clear
7:15 AM 68.2 °F - 66.2 °F 93% 30.06 in 5.0 mi Calm Calm - N/A   Clear
7:35 AM 70.5 °F - 67.6 °F 91% 30.06 in 5.0 mi South 4.6 mph - N/A   Clear
7:55 AM 71.6 °F - 68.0 °F 88% 30.06 in 7.0 mi SSE 5.8 mph - N/A   Clear
8:15 AM 73.8 °F - 68.7 °F 84% 30.07 in 7.0 mi South 6.9 mph - N/A   Clear
8:35 AM 76.1 °F - 68.7 °F 78% 30.07 in 10.0 mi South 6.9 mph - N/A   Clear
8:55 AM 77.4 °F - 69.3 °F 76% 30.07 in 10.0 mi SSE 8.1 mph - N/A   Clear
9:15 AM 78.3 °F - 69.4 °F 74% 30.07 in 10.0 mi South 6.9 mph - N/A   Clear
9:35 AM 79.5 °F - 68.9 °F 70% 30.07 in 10.0 mi South 8.1 mph - N/A   Clear
9:55 AM 80.1 °F 82.9 °F 68.9 °F 69% 30.06 in 10.0 mi SSW 5.8 mph - N/A   Clear
10:15 AM 81.0 °F 83.8 °F 68.4 °F 65% 30.06 in 10.0 mi SSW 5.8 mph - N/A   Clear
10:35 AM 81.7 °F 84.5 °F 68.2 °F 63% 30.05 in 10.0 mi SSE 5.8 mph - N/A   Clear
10:55 AM 82.4 °F 85.2 °F 67.6 °F 61% 30.05 in 10.0 mi South 6.9 mph - N/A   Clear
11:15 AM 83.1 °F 85.9 °F 67.6 °F 59% 30.05 in 10.0 mi SSE 6.9 mph - N/A   Clear
11:35 AM 83.8 °F 86.5 °F 67.1 °F 57% 30.05 in 10.0 mi SSE 4.6 mph - N/A   Clear
11:55 AM 84.6 °F 87.4 °F 67.1 °F 56% 30.05 in 10.0 mi SSW 8.1 mph - N/A   Clear
12:15 PM 85.1 °F 87.4 °F 66.4 °F 53% 30.04 in 10.0 mi SSW 5.8 mph - N/A   Clear
12:35 PM 86.0 °F 88.2 °F 65.8 °F 51% 30.04 in 10.0 mi SSW 6.9 mph - N/A   Clear
12:55 PM 86.7 °F 89.3 °F 66.7 °F 51% 30.03 in 10.0 mi SSE 8.1 mph - N/A   Scattered Clouds
1:15 PM 86.2 °F 88.4 °F 66.4 °F 51% 30.03 in 10.0 mi South 6.9 mph - N/A   Scattered Clouds
1:35 PM 86.4 °F 88.7 °F 66.0 °F 51% 30.03 in 10.0 mi SSE 8.1 mph 17.3 mph N/A   Scattered Clouds
1:55 PM 86.9 °F 89.3 °F 66.4 °F 50% 30.02 in 10.0 mi South 9.2 mph - N/A   Scattered Clouds
2:15 PM 86.7 °F 88.7 °F 65.3 °F 49% 30.02 in 10.0 mi South 5.8 mph - N/A   Scattered Clouds
2:35 PM 87.3 °F 89.5 °F 66.0 °F 49% 30.01 in 10.0 mi South 11.5 mph 17.3 mph N/A   Scattered Clouds
2:55 PM 87.4 °F 88.2 °F 63.3 °F 44% 30.01 in 10.0 mi South 10.4 mph - N/A   Scattered Clouds
3:15 PM 87.3 °F 88.0 °F 63.1 °F 44% 30.01 in 10.0 mi South 8.1 mph - N/A   Scattered Clouds
3:35 PM 87.4 °F 88.0 °F 62.2 °F 43% 30.00 in 10.0 mi SSE 5.8 mph - N/A   Clear
3:55 PM 88.5 °F 88.6 °F 61.5 °F 40% 30.00 in 10.0 mi South 6.9 mph 16.1 mph N/A   Clear
4:15 PM 87.4 °F 87.7 °F 61.5 °F 42% 30.00 in 10.0 mi South 6.9 mph - N/A   Clear
4:35 PM 86.9 °F 88.3 °F 64.4 °F 47% 30.00 in 10.0 mi SSE 9.2 mph - N/A   Clear
4:55 PM 87.4 °F 88.2 °F 63.1 °F 44% 30.00 in 10.0 mi South 6.9 mph - N/A   Clear
5:15 PM 87.4 °F 88.0 °F 62.4 °F 43% 30.00 in 10.0 mi SSE 9.2 mph - N/A   Clear
5:35 PM 87.4 °F 87.4 °F 61.3 °F 41% 29.99 in 10.0 mi South 6.9 mph - N/A   Clear
5:55 PM 86.9 °F 87.2 °F 62.2 °F 43% 29.99 in 10.0 mi South 8.1 mph - N/A   Clear
6:15 PM 86.5 °F 88.7 °F 66.0 °F 50% 29.99 in 10.0 mi SSE 8.1 mph - N/A   Clear
6:35 PM 86.0 °F 87.9 °F 65.5 °F 50% 29.98 in 10.0 mi SSE 6.9 mph - N/A   Clear
6:55 PM 84.7 °F 86.3 °F 64.9 °F 51% 29.99 in 10.0 mi SSE 8.1 mph - N/A   Clear
7:15 PM 84.2 °F 85.8 °F 64.8 °F 52% 29.99 in 10.0 mi SSE 8.1 mph - N/A   Clear
7:35 PM 83.5 °F 85.5 °F 65.7 °F 55% 29.99 in 10.0 mi SSE 6.9 mph - N/A   Clear
7:55 PM 82.6 °F 84.5 °F 65.7 °F 56% 29.99 in 10.0 mi SSE 8.1 mph - N/A   Clear
8:15 PM 82.0 °F 83.9 °F 65.3 °F 57% 30.00 in 10.0 mi SSE 6.9 mph - N/A   Clear
8:35 PM 81.5 °F 83.4 °F 65.5 °F 58% 30.00 in 10.0 mi SSE 6.9 mph - N/A   Clear
8:55 PM 79.3 °F - 66.4 °F 64% 30.00 in 10.0 mi SE 4.6 mph - N/A   Clear
9:15 PM 76.6 °F - 67.5 °F 73% 30.00 in 10.0 mi SSE 5.8 mph - N/A   Clear
9:35 PM 75.2 °F - 67.8 °F 78% 30.00 in 10.0 mi SSE 4.6 mph - N/A   Clear
9:55 PM 74.3 °F - 68.0 °F 81% 30.01 in 10.0 mi SE 4.6 mph - N/A   Clear
10:15 PM 74.3 °F - 68.0 °F 81% 30.01 in 10.0 mi SSE 4.6 mph - N/A   Clear
10:35 PM 73.4 °F - 68.0 °F 83% 30.02 in 10.0 mi SE 4.6 mph - N/A   Clear
10:55 PM 72.7 °F - 68.2 °F 86% 30.02 in 10.0 mi SE 3.5 mph - N/A   Clear
11:15 PM 72.5 °F - 68.5 °F 87% 30.02 in 10.0 mi SE 5.8 mph - N/A   Clear
11:35 PM 72.5 °F - 68.9 °F 88% 30.02 in 10.0 mi SE 5.8 mph - N/A   Clear
11:55 PM 73.0 °F - 68.9 °F 87% 30.03 in 10.0 mi SSE 5.8 mph - N/A   Clear